Torna al catalogo

STARLINK-6169

AttivoComunicazioniVLEO
NORAD 56889·PAYLOAD·🇺🇸 United States

Lanciato Jun 12, 2023 da Cape Canaveral Space Force Station

Loading…

Prossimi Passaggi (prossime 24 ore)

TLE

AggiornatoSource: CelesTrak SupGP

Epoca: Sep 15, 2026, 02:20 UTC

1 56889C 23083P   26258.09770833  .00009787  00000+0  35443-3 0  2582
2 56889  43.0013  95.2225 0001412 260.4756  14.4566 15.27578874    13

Traccia STARLINK-6169 in tempo reale con AllMySat

Download on the App Store